Location: La Sioule Rivi�re
(46.3664°N, 3.3197°E)
Time: 12:17:14
(UTC+00:00)

GEOS 3 Rocket - Pass Details

Date: 29 October 2020
Orbit: 770 x 850 km, 115.0° (Epoch: 23 November)

Event Time Altitude Azimuth Distance (km) Brightness Sun altitude
Exits shadow 18:17:20 31° 92° (E) 1,438 4.3 -18.0°
Maximum altitude 18:19:25 46° 41° (NE) 1,125 4.0 -18.3°
Drops below altitude 10° 18:24:33 10° 330° (NNW) 2,480 6.5 -19.2°
Sets 18:26:58 0° 325° (NW) 3,422 7.4 -19.6°
